Showing default

ARVAKER-1, 63252

Orbit data source: Space-Track

ARVAKER-1, 63252 is a payload satellite owned by NSC (NO) in SSO that was launched on Sat, 15 Mar 2025 UTC via an FALCON 9 launch vehicle from the Air Force Western Test Range (AFWTR). Payload-class satellites include a variety of spacecraft equipped with specific instruments for various scientific and technological missions. These include communications satellites like Starlink; space stations such as the ISS; scientific satellites like the Hubble; Earth observation satellites from companies like Planet Labs, Umbra, and HawkEye 360; GPS; miniature CubeSats for education and research; and military/defense satellites.

Loading next visibility...
Identifier
63252, 2025-052AU
Orbit
SSO
Country
Flag of NONO / NOR
Related business
Manufacturer
NanoAvionics
Mission
Operational Commercial Imaging
Bus & Motor
MP42, Unknown motor
Mass
~100 kg wet, ~100 kg dry
Launch date (UTC)
2025-03-15 (9 months ago)
Launch vehicle
FALCON 9
Launch site
Air Force Western Test Range (AFWTR)
Object type
Payload
Rocket body
Debris
Shape & HBR
Box + 2 Pan, 0.8 m
Radar Cross Section
0.146 m², Medium (>0.1 m² and < 1m²)

Expand to show TLE details & history
Last TLE update: 22 hours ago

TLE from 22 hours ago
0 ARVAKER-1
1 63252U 25052AU  25340.94193435  .00004231  00000-0  40715-3 0  9994
2 63252  97.7069 230.9507 0003535 117.7984 242.3594 14.93504464 39907
Epoch: 2025-12-06T22:36Z
TLE epoch observation values (Epoch: 2025-12-06T22:36:23.127Z)
Latitude
-0.0001°
Longitude
175.89191°
Altitude
591.207 km
Speed
7.564 km/s
True Right ascension
15h 23m 48s
True Declination
0° 00' 00"
Sunlit
Object was in daylight at epoch
Visualization orbit readout
Latitude
Unknown
Longitude
Unknown
Altitude
Unknown
Speed
Unknown
Apparent Right ascension
Unknown
Apparent Declination
Unknown
Sunlit
N/A
Visualization observer readout
Local Sidereal Time
18:37:29
Azimuth
Unknown
Elevation
Unknown
Doppler factor
Unknown
Orbital elements
Apogee altitude
586.494 km
Perigee altitude
581.572 km
Semi-major axis
6,962.17 km
Eccentricity
0.00035
Inclination
97.7069°
RAAN
230.9507°
Arg. of periapsis
117.7984°
True anomaly
242.32352°
Mean anomaly
242.3594°
Eccentric anomaly
242.34146°
Mean motion
3.73617 °/min
Orbital period
96.36 mins
BSTAR
0.00040715
Loading maneuver chart data...
Computing Atmospheric mass density...
Loading historical data...
Loading historical data...
Loading historical data...
Loading historical data...
Loading historical data...
Loading historical data...
Loading historical data...

Documentation

Showing up to 5 results
|